Vorticity
4 6 1 -10 -8 -7 28 4 -22 -13 -6 7 1 -0 4 15 11 24 16 -1 6 25 16 13 18 14 13 13 16 17 15 18 15 10 9 7 6 4 4 7 9 12 10 9
18 14 5 14 15 -0 2 1 4 5 -2 7 5 7 4 7 26 10 -5 23 -6 33 11 8 9 15 15 11 14 20 15 11 10 7 4 4 6 6 10 8 9 9 8 8
15 30 21 54 23 11 22 19 5 5 8 5 11 14 11 -2 9 25 17 2 4 46 3 6 9 13 16 15 3 9 11 12 6 6 4 7 6 9 7 8 8 8 7 6
22 9 17 11 -3 13 10 1 3 12 21 24 21 16 16 13 9 0 26 2 11 26 20 14 15 17 14 14 14 11 7 6 4 5 8 8 7 6 8 7 8 7 6 6
-17 8 -13 -22 -3 -3 4 12 34 8 9 7 21 25 22 17 5 11 1 11 20 14 11 2 25 16 14 10 6 6 6 5 6 7 8 6 5 7 7 8 7 6 6 5
-25 0 7 49 46 48 21 10 10 4 -0 15 12 12 22 22 20 16 15 24 2 21 6 14 15 11 8 6 6 5 5 6 6 5 6 7 7 7 7 6 6 6 4 6
16 -8 30 13 -12 -23 17 27 28 31 28 11 9 32 9 25 20 29 16 21 14 15 3 9 12 15 6 6 6 5 6 6 6 4 7 5 5 6 6 7 7 7 11 7
46 28 27 2 29 12 8 1 -15 -23 -7 -0 -6 -0 20 27 28 14 31 4 18 13 9 18 13 9 8 8 3 4 5 4 3 5 5 6 7 8 8 8 11 11 9 7
-21 -31 2 20 16 19 21 33 29 34 26 34 18 4 2 11 12 13 26 19 14 13 13 14 9 7 8 5 3 5 5 3 3 4 5 6 8 6 10 15 12 8 7 5
12 21 -12 13 6 17 17 26 4 -9 30 -7 -0 34 3 27 14 18 28 28 19 9 11 10 7 8 7 3 4 6 5 6 7 7 7 5 8 15 15 9 7 6 8 11
12 6 26 3 14 23 18 31 17 24 -2 24 11 14 13 -0 17 12 30 21 11 9 8 7 10 10 1 4 5 6 9 10 8 7 7 8 18 12 7 5 5 8 11 13
0 10 7 6 16 13 19 32 23 33 21 6 20 10 16 26 24 14 14 18 11 8 7 8 10 5 3 5 11 10 9 8 7 6 14 16 12 9 4 5 10 13 14 13
9 5 9 3 4 17 19 23 27 23 30 18 32 10 19 29 23 26 19 13 11 7 9 9 7 3 6 10 8 5 7 9 12 18 16 12 8 4 6 12 12 13 11 8
25 16 7 17 16 12 15 16 19 26 26 32 30 17 19 21 31 20 14 9 10 12 8 4 5 6 9 11 12 12 15 16 14 14 10 6 4 8 12 14 13 10 9 10
8 11 8 6 2 10 10 6 16 23 25 28 33 36 29 27 22 15 12 13 16 12 14 15 11 8 11 16 15 12 13 15 10 6 5 8 11 13 13 12 12 10 11 11
5 7 9 14 14 9 10 10 13 10 9 9 9 7 11 11 8 8 8 7 8 10 11 12 13 14 14 11 12 11 7 6 7 10 11 12 13 13 12 12 11 10 11 12
11 5 9 10 11 11 13 13 14 12 10 10 11 12 11 11 11 12 12 11 10 10 9 9 11 10 8 7 6 7 8 9 10 12 12 12 13 12 12 11 10 11 12 11
12 11 11 12 11 9 9 10 9 9 10 11 10 10 10 11 10 10 11 8 8 8 7 6 5 6 7 8 8 9 10 11 12 11 12 12 12 12 11 11 11 12 12 10
11 12 11 11 11 11 10 10 10 11 11 11 11 10 9 9 9 6 6 5 6 6 6 7 8 8 8 9 10 10 10 11 11 11 11 12 13 13 12 12 12 11 9 9
11 12 12 12 12 12 13 11 11 11 10 11 9 6 6 6 6 7 8 7 7 8 8 9 9 9 9 9 10 10 11 11 11 12 13 14 13 12 11 10 8 9 10 11
9 9 8 9 9 9 9 9 8 8 8 7 7 8 8 8 8 9 8 8 9 9 9 10 10 10 10 10 10 11 11 11 11 12 13 12 11 10 9 10 11 10 12 12
13 13 13 12 12 12 13 13 12 12 12 12 12 12 11 11 11 11 11 11 12 12 12 12 11 11 11 10 11 12 12 13 14 14 13 12 11 12 11 9 11 13 12 11
14 14 14 14 13 13 12 12 13 13 13 13 13 13 13 14 14 16 17 15 13 14 13 13 12 12 12 12 13 13 15 16 16 14 12 12 11 10 11 12 12 11 11 10
14 14 14 14 14 14 14 14 14 14 14 15 16 15 14 13 14 15 16 16 14 13 12 12 12 12 14 15 16 17 16 15 14 12 11 9 10 12 13 12 11 10 11 11
11 12 12 12 12 13 14 13 13 14 14 14 15 15 16 16 13 13 13 12 11 12 13 13 13 15 17 17 16 15 14 13 11 10 11 12 13 13 12 11 11 11 12 12
14 14 14 13 12 13 14 14 14 14 13 13 14 14 15 16 16 15 15 15 15 15 16 16 15 14 13 13 12 12 11 10 11 13 13 13 12 10 10 10 10 11 11 12
11 12 12 13 14 14 13 13 13 13 13 14 13 12 13 14 14 14 14 14 15 17 15 14 13 13 12 12 11 12 12 13 13 13 12 11 10 10 10 10 11 11 11 12
Height
3005 3008 3009 3006 3006 3006 3005 3004 3002 2995 2990 2994 2998 3000 3001 3002 3003 3002 3004 3005 3006 3009 3012 3015 3020 3025 3029 3034 3039 3043 3048 3052 3056 3060 3065 3069 3073 3075 3077 3078 3079 3079 3080 3080
2994 2999 3000 2995 2994 2997 2997 2995 2991 2991 2974 2989 2991 2993 2994 2995 2996 2996 2997 2998 3001 3003 3006 3011 3015 3019 3024 3028 3034 3039 3043 3048 3052 3056 3060 3065 3069 3068 3070 3070 3071 3072 3073 3073
2985 2990 2991 2985 2977 2983 2983 2983 2984 2979 2969 2984 2982 2984 2986 2988 2989 2989 2991 2993 2994 2997 3000 3005 3010 3015 3018 3024 3028 3033 3038 3042 3047 3050 3054 3058 3062 3061 3062 3063 3065 3066 3067 3067
2979 2982 2978 2964 2970 2975 2974 2973 2973 2970 2970 2974 2973 2973 2975 2977 2980 2983 2983 2986 2989 2992 2998 3002 3004 3007 3013 3018 3023 3028 3032 3037 3043 3046 3048 3053 3054 3054 3056 3058 3059 3060 3060 3060
2973 2967 2964 2959 2965 2967 2965 2961 2966 2963 2964 2965 2964 2963 2962 2968 2970 2974 2978 2980 2983 2987 2992 2997 3001 3005 3010 3015 3019 3025 3029 3034 3037 3040 3043 3046 3047 3049 3051 3051 3052 3053 3053 3052
2965 2959 2955 2952 2956 2960 2958 2943 2958 2957 2957 2957 2957 2955 2956 2957 2960 2963 2968 2973 2976 2982 2985 2988 2995 2999 3004 3010 3016 3021 3024 3027 3031 3034 3038 3040 3042 3043 3044 3044 3045 3045 3045 3044
2953 2951 2947 2943 2949 2950 2949 2949 2949 2948 2949 2951 2951 2950 2949 2949 2951 2954 2959 2964 2968 2973 2979 2984 2990 2995 3000 3006 3010 3014 3019 3023 3026 3029 3032 3034 3035 3036 3037 3037 3038 3038 3037 3036
2946 2944 2940 2937 2942 2944 2939 2942 2942 2941 2942 2943 2943 2945 2944 2943 2944 2947 2951 2957 2962 2967 2972 2978 2983 2990 2996 3001 3006 3010 3014 3018 3021 3023 3025 3026 3028 3029 3030 3030 3030 3030 3029 3027
2944 2942 2939 2936 2935 2931 2931 2932 2934 2936 2936 2937 2939 2940 2941 2940 2940 2942 2945 2949 2954 2961 2968 2975 2980 2986 2991 2996 3000 3005 3009 3012 3014 3016 3018 3020 3021 3022 3022 3022 3022 3021 3019 3017
2937 2935 2933 2931 2930 2927 2923 2924 2925 2927 2930 2930 2932 2933 2937 2936 2936 2938 2941 2944 2950 2957 2963 2970 2975 2981 2986 2991 2995 2999 3002 3004 3007 3010 3011 3012 3013 3014 3013 3013 3012 3011 3009 3008
2931 2931 2929 2927 2925 2921 2917 2916 2919 2920 2924 2925 2926 2927 2930 2932 2935 2935 2938 2943 2949 2955 2960 2966 2971 2976 2981 2985 2989 2992 2995 2998 3001 3002 3004 3004 3005 3006 3005 3005 3004 3002 3000 2999
2928 2927 2926 2925 2922 2918 2916 2913 2913 2915 2915 2918 2919 2921 2923 2926 2930 2933 2938 2943 2947 2952 2957 2962 2967 2972 2976 2980 2983 2986 2989 2991 2993 2994 2995 2997 2997 2997 2997 2997 2995 2993 2992 2990
2930 2928 2927 2926 2923 2919 2915 2913 2910 2909 2910 2912 2913 2916 2919 2922 2924 2928 2932 2936 2941 2946 2951 2956 2961 2965 2969 2973 2976 2978 2981 2984 2986 2987 2989 2990 2990 2990 2989 2988 2986 2985 2984 2982
2930 2930 2930 2929 2921 2918 2918 2914 2910 2908 2908 2910 2909 2909 2912 2916 2919 2923 2927 2931 2935 2939 2943 2949 2954 2959 2963 2966 2970 2973 2975 2977 2980 2982 2982 2982 2982 2982 2981 2981 2979 2976 2975 2975
2932 2931 2929 2926 2923 2922 2921 2918 2916 2914 2912 2912 2914 2916 2915 2915 2918 2921 2925 2929 2934 2939 2944 2948 2952 2956 2960 2963 2966 2968 2972 2974 2974 2974 2975 2974 2974 2973 2973 2973 2972 2971 2969 2967
2930 2929 2928 2926 2925 2925 2924 2922 2920 2919 2918 2918 2919 2921 2923 2925 2927 2928 2931 2934 2937 2940 2943 2946 2950 2954 2957 2960 2963 2965 2965 2966 2967 2968 2967 2967 2966 2966 2965 2965 2964 2964 2963 2961
2929 2928 2928 2927 2927 2928 2925 2923 2923 2923 2922 2921 2922 2923 2924 2926 2928 2930 2932 2934 2936 2939 2942 2945 2948 2950 2953 2956 2957 2958 2958 2959 2960 2960 2959 2959 2959 2959 2958 2958 2957 2956 2954 2953
2930 2929 2929 2928 2928 2926 2925 2925 2925 2924 2924 2924 2923 2924 2925 2926 2928 2930 2932 2933 2935 2938 2941 2943 2946 2948 2949 2949 2950 2951 2952 2953 2953 2952 2952 2952 2952 2952 2951 2951 2950 2949 2948 2947
2930 2929 2928 2927 2926 2925 2925 2925 2925 2925 2924 2924 2924 2923 2924 2925 2927 2929 2931 2933 2935 2937 2939 2941 2942 2943 2943 2944 2944 2945 2945 2945 2945 2945 2945 2946 2945 2945 2945 2944 2943 2943 2942 2941
2928 2927 2926 2925 2925 2924 2924 2923 2923 2922 2922 2922 2922 2924 2924 2926 2927 2929 2930 2931 2932 2933 2935 2936 2936 2937 2938 2938 2938 2939 2939 2939 2939 2939 2939 2939 2938 2938 2938 2938 2938 2937 2937 2935
2928 2926 2925 2924 2924 2923 2922 2922 2921 2920 2920 2921 2921 2922 2923 2924 2924 2925 2926 2926 2928 2928 2929 2930 2930 2931 2931 2932 2932 2933 2933 2933 2932 2933 2933 2933 2933 2933 2933 2933 2933 2932 2931 2929
2926 2925 2923 2922 2921 2920 2919 2919 2918 2918 2917 2917 2917 2918 2919 2919 2919 2920 2921 2922 2923 2923 2924 2924 2924 2925 2925 2925 2926 2926 2926 2926 2926 2927 2928 2928 2928 2928 2928 2928 2927 2926 2925 2924
2924 2923 2921 2920 2919 2917 2916 2915 2915 2914 2914 2914 2913 2913 2913 2913 2914 2914 2915 2916 2916 2917 2917 2918 2918 2919 2919 2919 2920 2920 2920 2921 2921 2922 2923 2923 2924 2923 2923 2922 2922 2921 2920 2919
2922 2920 2919 2918 2916 2915 2914 2913 2912 2911 2910 2910 2910 2909 2909 2909 2909 2910 2910 2911 2911 2912 2912 2913 2913 2914 2913 2913 2914 2915 2915 2916 2917 2918 2918 2919 2919 2918 2918 2918 2918 2917 2916 2914
2920 2919 2917 2915 2914 2913 2912 2910 2909 2908 2907 2907 2906 2905 2905 2905 2905 2905 2906 2906 2906 2907 2907 2908 2908 2908 2908 2909 2909 2910 2911 2912 2913 2914 2914 2914 2914 2914 2914 2914 2913 2912 2911 2909
2919 2917 2916 2914 2913 2911 2910 2908 2907 2906 2905 2904 2903 2903 2902 2902 2902 2902 2902 2902 2902 2902 2902 2903 2903 2903 2904 2905 2906 2907 2908 2909 2909 2910 2910 2910 2911 2911 2910 2910 2909 2908 2906 2905
2919 2917 2915 2913 2911 2909 2908 2907 2906 2904 2903 2901 2900 2899 2899 2898 2897 2896 2896 2896 2897 2897 2898 2899 2900 2901 2902 2902 2903 2904 2904 2905 2906 2906 2907 2907 2907 2907 2906 2906 2905 2903 2902 2901